Tracking 35334 objects as of 13-Sep-2026
HD Live streaming from Space Station
objects crossing your sky now

STARLINK-37925

Track STARLINK-37925 now!
10-day predictions
STARLINK-37925 is classified as:


NORAD ID: 69962
Int'l Code: 2026-157V
Launch date: July 9, 2026
Source: United States (US)
Launch site: AIR FORCE EASTERN TEST RANGE (AFETR)
Your satellite tracking list
Your tracking list is empty




NASA's NSSDC Master Catalog

Two Line Element Set (TLE):
1 69962U 26157V   26255.69911325  .00011375  00000-0  34723-3 0  9998
2 69962  53.1595  10.2939 0001098  95.6344 264.4783 15.34403256 10171
Source of the keplerian elements: AFSPC